WGS F6 (USA 244)

Last updated on Thu Nov 21 2024 00:02:42 GMT+0000 (Coordinated Universal Time)

1 39222U 13041A 24324.55367854 .00000091 00000+0 00000+0 0 9993 2 39222 0.0136 299.4876 0000818 331.6646 212.0330 1.00271972 40296
UTC large
Height (km)
Speed (km/s)
/
Latitude / Longitude
Inclination (degrees)
Orbital Period (minutes)
Azimuth
Elevation
Range (km)
Doppler Factor

Next 0 passes for location: London (51.5072 / 0.1276)

Sorry there are no passes over London.